[[{"header":{"parameterUnit":"m.s-1","parameterCategory":1,"la1":30.2991,"la2":30.254,"lo1":-89.0895,"lo2":-89.0444,"dy":0.0017,"dx":0.0017,"nx":28,"ny":28,"refTime":"2025-09-16T03:00:00:Z","depth":0,"parameterNumber":2,"parameterNumberName":"U-component_of_WINDS"},"data":[0,0,0,0,0,0,0,0,0,0,0,0,0,0,0,0,0,0,0,0,0,0,0,0,0,0,0,0,0,0,0,0,0,0,0,0,0,0,0,0,0,0,0,0,0,0,0,0,0,0,0,0,0,0,0,0,0,0,0.9285,0.9285,0,0.9224,0.9223,0.9222,0.9174,0.9174,0.9173,0.9173,0.911,0.9109,0.9108,0,0,0,0,0,0,0,0,0,0,0,0,0,0.9361,0.936,0.9286,0.9285,0.9284,0.9224,0.9223,0.9222,0.9174,0.9174,0.9173,0.9173,0.9111,0.9109,0.9108,0,0,0,0,0,0,0,0,0,0,0,0,0,0.9317,0.936,0.9286,0.9253,0.9249,0.9224,0.9223,0.9222,0.9174,0.9174,0.9173,0.9172,0.9111,0.9109,0.9107,0.911,0,0,0.9102,0.9101,0,0,0,0,0,0,0,0,0.9319,0.9314,0.9258,0.9255,0.9251,0.9206,0.9226,0.9184,0.9174,0.9203,0.9173,0.9172,0.9143,0.9138,0.9128,0.9107,0.9104,0.9102,0.91,0.91,0.9099,0,0,0,0,0,0,0,0.9323,0.9316,0.9261,0.9258,0.9253,0.9241,0.9234,0.9218,0.9177,0.92,0.9197,0.919,0.914,0.913,0.9126,0.9103,0.9102,0.91,0.9099,0.9098,0.9078,0.9078,0,0,0,0,0,0,0.9331,0.9319,0.9263,0.9259,0.9284,0.924,0.9232,0.9221,0.9177,0.917,0.9191,0.9188,0.9133,0.9128,0.9124,0.9121,0.91,0.9098,0.9097,0.9077,0.9078,0.9078,0,0,0,0,0,0,0.9333,0.9326,0.9265,0.9288,0.9279,0.9239,0.9227,0.922,0.921,0.917,0.9162,0.9187,0.9133,0.9126,0.9113,0.9119,0.9097,0.9095,0.9076,0.9077,0.9078,0.9118,0,0,0,0,0,0,0.9335,0.9327,0.9328,0.9289,0.9278,0.9256,0.9228,0.9219,0.9206,0.9202,0.9165,0.9158,0.9132,0.9116,0.9111,0.9116,0.9094,0.9076,0.9077,0.9078,0.9116,0.912,0.9124,0,0,0,0,0,0.9338,0.9343,0.9328,0.9322,0.9279,0.9257,0.9251,0.922,0.9207,0.9207,0.9181,0.9159,0.9119,0.9115,0.9109,0.9113,0.9075,0.9077,0.9078,0.9115,0.912,0.9124,0,0,0,0,0,0,0.9385,0.9337,0.9321,0.9313,0.9289,0.9248,0.9248,0.9227,0.9206,0.9203,0.9166,0.9158,0.9148,0.9129,0.9126,0.9112,0.9094,0.9094,0.9124,0.9129,0.9132,0.9137,0.9092,0,0,0,0,0,0.9394,0.938,0.9339,0.9336,0.9325,0.9289,0.9278,0.9256,0.923,0.9219,0.9193,0.9168,0.9149,0.9138,0.9119,0.9114,0.9103,0.9113,0.9117,0.9121,0.9121,0.9114,0.9117,0.9083,0.9083,0.9083,0,0,0.9414,0.9386,0.9379,0.9345,0.9324,0.9309,0.9281,0.9267,0.9256,0.9218,0.9202,0.9182,0.9152,0.9141,0.9136,0.9126,0.9128,0.9122,0.9125,0.9124,0.9115,0.9119,0.9122,0.9084,0.9083,0.9083,0,0,0.9441,0.942,0.9413,0.9392,0.936,0.9336,0.9334,0.9296,0.9281,0.9265,0.9235,0.9221,0.919,0.9169,0.9155,0.9172,0.915,0.9167,0.9186,0.918,0.9183,0.9185,0.9189,0.9191,0.9167,0.9167,0.9167,0,0.9469,0.9446,0.9413,0.94,0.9385,0.9349,0.9342,0.9323,0.9287,0.9277,0.9266,0.9225,0.9203,0.9186,0.9189,0.918,0.9175,0.917,0.9185,0.9187,0.9188,0.9192,0.9193,0.9169,0.9169,0.9169,0.9169,0,0.9481,0.9466,0.9465,0.9429,0.9414,0.9405,0.9369,0.9357,0.9336,0.9312,0.9295,0.9267,0.924,0.9234,0.9215,0.9214,0.9208,0.9192,0.9173,0.9194,0.9197,0.9198,0.9172,0.9172,0.9171,0.917,0,0,0.9537,0.9482,0.9482,0.9464,0.9425,0.9412,0.94,0.9373,0.9363,0.9339,0.9327,0.9301,0.9284,0.9268,0.9245,0.9239,0.9252,0.9223,0.9222,0.9228,0.9246,0.9258,0.926,0.9237,0.9237,0.9237,0.9248,0,0.9557,0.9533,0.9502,0.9488,0.9472,0.9437,0.9426,0.94,0.9377,0.936,0.9334,0.9315,0.9297,0.9286,0.9279,0.9252,0.9255,0.9251,0.9224,0.9224,0.9231,0.9262,0.9274,0.9286,0.9249,0.9249,0.9249,0,0.9577,0.9554,0.9538,0.9498,0.949,0.9481,0.9452,0.9437,0.9406,0.939,0.937,0.9345,0.9329,0.9313,0.9289,0.9287,0.9274,0.9259,0.9259,0.9254,0.9237,0.9256,0.9289,0.929,0.9251,0.9251,0.9251,0,0.9617,0.9581,0.9567,0.9553,0.9507,0.95,0.9481,0.945,0.9435,0.941,0.9399,0.9373,0.9359,0.9339,0.9307,0.9298,0.9286,0.9268,0.927,0.9271,0.9269,0.9269,0.9298,0.9263,0.9263,0.9263,0.9263,0,0.9642,0.9633,0.9583,0.9574,0.9563,0.9527,0.9516,0.9493,0.9465,0.945,0.9419,0.9405,0.9364,0.9346,0.9321,0.9304,0.9298,0.9283,0.9276,0.9285,0.9287,0.9275,0.9273,0.9264,0.9263,0.9263,0.9263,0,0.9684,0.965,0.9632,0.9589,0.9578,0.9571,0.9534,0.9523,0.9498,0.9479,0.9472,0.9432,0.9409,0.9374,0.9341,0.9324,0.931,0.93,0.932,0.9316,0.932,0.9319,0.9342,0.9342,0.9308,0.9309,0.9309,0,0.9701,0.9693,0.9649,0.9636,0.9617,0.9598,0.9582,0.9545,0.953,0.9493,0.9487,0.946,0.9437,0.94,0.9368,0.9341,0.9329,0.9339,0.9325,0.9333,0.9327,0.9327,0.9326,0.9342,0.9343,0.9343,0.9344,0,0.9734,0.9717,0.9696,0.9667,0.9649,0.9625,0.96,0.9591,0.9549,0.9533,0.9508,0.949,0.9454,0.9428,0.9397,0.9376,0.9352,0.9348,0.9347,0.9355,0.9366,0.9358,0.9327,0.9348,0.9347,0.9347,0.9347,0.9347,0.9762,0.9753,0.972,0.9696,0.9673,0.9649,0.9636,0.9609,0.9587,0.9555,0.9535,0.951,0.9478,0.9433,0.9413,0.9392,0.9383,0.9382,0.9381,0.9381,0.9383,0.9371,0.9387,0.9386,0.9386,0.9386,0.9386,0,0.9792,0.9769,0.9747,0.9712,0.9693,0.9672,0.9643,0.9628,0.9606,0.9578,0.9555,0.9525,0.9499,0.9464,0.9435,0.9425,0.9413,0.9418,0.9418,0.9413,0.9394,0.9397,0.9428,0.9428,0.9428,0.9428,0.9428,0.9428,0.9805,0.9787,0.9767,0.9736,0.9713,0.9688,0.9672,0.965,0.9627,0.9595,0.9572,0.955,0.9518,0.9486,0.946,0.9451,0.9441,0.9449,0.9436,0.9419,0.9415,0.9411,0.9414,0.9447,0.9447,0.9456,0.9456,0.9456]},{"header":{"parameterUnit":"m.s-1","parameterCategory":1,"la1":30.2991,"la2":30.254,"lo1":-89.0895,"lo2":-89.0444,"dy":0.0017,"dx":0.0017,"nx":28,"ny":28,"refTime":"2025-09-16T03:00:00:Z","depth":0,"parameterNumber":3,"parameterNumberName":"V-component_of_WINDS"},"data":[0,0,0,0,0,0,0,0,0,0,0,0,0,0,0,0,0,0,0,0,0,0,0,0,0,0,0,0,0,0,0,0,0,0,0,0,0,0,0,0,0,0,0,0,0,0,0,0,0,0,0,0,0,0,0,0,0,0,3.2072,3.2072,0,3.2076,3.2076,3.2076,3.2034,3.2033,3.2032,3.2031,3.2035,3.2036,3.2037,0,0,0,0,0,0,0,0,0,0,0,0,0,3.2026,3.2027,3.2072,3.2072,3.2072,3.2076,3.2076,3.2076,3.2034,3.2033,3.2032,3.203,3.2034,3.2036,3.2037,0,0,0,0,0,0,0,0,0,0,0,0,0,3.2039,3.2027,3.2072,3.2051,3.205,3.2076,3.2076,3.2076,3.2035,3.2033,3.2031,3.203,3.2034,3.2036,3.2037,3.2083,0,0,3.2043,3.2044,0,0,0,0,0,0,0,0,3.2039,3.2041,3.2054,3.2053,3.2051,3.2053,3.2061,3.2078,3.2035,3.204,3.2031,3.2029,3.2042,3.2043,3.2048,3.2083,3.2083,3.2043,3.2044,3.2045,3.2045,0,0,0,0,0,0,0,3.2038,3.2041,3.2073,3.2055,3.2052,3.2042,3.2042,3.2064,3.2051,3.204,3.2037,3.2038,3.2041,3.2046,3.2048,3.2084,3.2043,3.2045,3.2046,3.2046,3.2154,3.2156,0,0,0,0,0,0,3.204,3.204,3.2073,3.2073,3.204,3.2044,3.2044,3.2054,3.2051,3.2048,3.2039,3.2036,3.2044,3.2046,3.2048,3.2098,3.2045,3.2047,3.2048,3.2152,3.2155,3.2157,0,0,0,0,0,0,3.2039,3.2043,3.2073,3.2056,3.2059,3.2047,3.2058,3.2055,3.206,3.205,3.2048,3.2047,3.2043,3.2045,3.2074,3.2098,3.2047,3.2049,3.215,3.2153,3.2156,3.2202,0,0,0,0,0,0,3.2038,3.2043,3.2061,3.2057,3.206,3.21,3.206,3.2056,3.2063,3.2059,3.2057,3.2055,3.2042,3.2072,3.2076,3.21,3.205,3.2148,3.2152,3.2155,3.2198,3.2206,3.2213,0,0,0,0,0,3.2036,3.2074,3.2062,3.2066,3.2082,3.2101,3.2103,3.2087,3.2066,3.2082,3.2076,3.2055,3.2095,3.2075,3.2079,3.2104,3.2146,3.2151,3.2154,3.2195,3.2205,3.2213,0,0,0,0,0,0,3.2081,3.2073,3.2059,3.2097,3.21,3.2094,3.2115,3.2098,3.2107,3.2103,3.2082,3.2082,3.2114,3.2112,3.209,3.2147,3.2117,3.2122,3.2146,3.2155,3.2162,3.2161,3.2052,0,0,0,0,0,3.2096,3.2113,3.2105,3.2139,3.2141,3.2128,3.2136,3.2123,3.2125,3.2127,3.2122,3.2125,3.2138,3.2147,3.2159,3.2199,3.2197,3.2218,3.2225,3.2231,3.2235,3.2254,3.2262,3.217,3.217,3.217,0,0,3.2125,3.2123,3.2135,3.2148,3.2148,3.2165,3.2129,3.2149,3.2161,3.213,3.2156,3.2153,3.2155,3.2189,3.2204,3.2188,3.226,3.2236,3.2241,3.2242,3.2259,3.2268,3.2275,3.2173,3.2172,3.2172,0,0,3.2188,3.2189,3.2216,3.2217,3.2219,3.221,3.2216,3.2213,3.2209,3.2236,3.2212,3.2226,3.2249,3.2251,3.2255,3.2317,3.2297,3.2321,3.2358,3.2376,3.2384,3.239,3.241,3.2417,3.2326,3.2326,3.2326,0,3.2224,3.2249,3.2232,3.2253,3.2258,3.223,3.2257,3.2259,3.2265,3.2269,3.2252,3.2279,3.2279,3.2312,3.2326,3.2332,3.2337,3.232,3.2384,3.239,3.2396,3.2414,3.2422,3.2328,3.2328,3.2328,3.2328,0,3.2292,3.231,3.2332,3.2337,3.2345,3.2369,3.2354,3.2365,3.2352,3.2344,3.237,3.2369,3.2378,3.2386,3.2374,3.2417,3.2407,3.2388,3.2357,3.2408,3.2424,3.2432,3.2332,3.2331,3.2331,3.233,0,0,3.2382,3.2377,3.2385,3.2386,3.2385,3.2398,3.2421,3.243,3.2438,3.2443,3.2459,3.248,3.2461,3.2466,3.2454,3.247,3.2516,3.2448,3.2448,3.2459,3.2561,3.2574,3.2582,3.2504,3.2505,3.2507,3.256,0,3.244,3.2477,3.2462,3.25,3.2515,3.2488,3.2507,3.2509,3.2503,3.2514,3.2507,3.2521,3.2497,3.2499,3.2514,3.2507,3.2536,3.2504,3.2518,3.2519,3.2516,3.2591,3.2605,3.2655,3.2567,3.2568,3.2569,0,3.2513,3.252,3.2559,3.2554,3.256,3.2577,3.2583,3.2595,3.2596,3.259,3.2595,3.2578,3.2598,3.257,3.2596,3.2575,3.258,3.2577,3.2579,3.2578,3.2545,3.259,3.2671,3.2678,3.2579,3.2579,3.2578,0,3.2571,3.2591,3.2616,3.2618,3.2613,3.2626,3.2624,3.2623,3.2629,3.2635,3.2638,3.2647,3.2651,3.2658,3.2644,3.2625,3.2672,3.2643,3.2666,3.2667,3.2676,3.2675,3.2757,3.2684,3.2684,3.2683,3.2683,0,3.2636,3.2661,3.2641,3.2656,3.2683,3.2665,3.2691,3.2687,3.2686,3.27,3.2679,3.2692,3.2673,3.2685,3.2674,3.2697,3.2699,3.2694,3.2691,3.2695,3.2695,3.2696,3.2691,3.2685,3.2685,3.2685,3.2684,0,3.2705,3.2693,3.2718,3.2712,3.271,3.273,3.2724,3.2737,3.273,3.2747,3.275,3.2738,3.275,3.2737,3.2748,3.2741,3.2771,3.2764,3.277,3.2767,3.2791,3.2788,3.2874,3.2884,3.2807,3.2808,3.2808,0,3.2746,3.2764,3.2759,3.2766,3.2765,3.2778,3.2783,3.2767,3.2774,3.2775,3.2788,3.2798,3.2805,3.2825,3.2817,3.2825,3.2816,3.2846,3.2817,3.282,3.2814,3.2812,3.2812,3.2851,3.2852,3.2853,3.2854,0,3.2819,3.2812,3.2821,3.2827,3.2834,3.2839,3.2842,3.2849,3.2832,3.2841,3.2852,3.2858,3.2868,3.2878,3.2884,3.2882,3.2864,3.2863,3.2868,3.2871,3.2873,3.287,3.2783,3.2861,3.286,3.2859,3.2859,3.2859,3.2873,3.2887,3.2885,3.2895,3.2895,3.2898,3.291,3.2903,3.2912,3.2919,3.291,3.2923,3.2922,3.2928,3.2928,3.2939,3.2926,3.2935,3.2936,3.2938,3.294,3.2874,3.294,3.294,3.294,3.294,3.2939,0,3.2943,3.294,3.295,3.2953,3.2961,3.2945,3.2947,3.2954,3.2966,3.2967,3.2974,3.2986,3.2995,3.2988,3.2996,3.3005,3.2997,3.3007,3.3005,3.3004,3.2953,3.2946,3.3013,3.3013,3.3013,3.3013,3.3013,3.3013,3.298,3.3001,3.2994,3.3015,3.3012,3.3025,3.3027,3.3029,3.3029,3.3044,3.3051,3.3046,3.3043,3.305,3.3057,3.3055,3.3057,3.307,3.3065,3.3016,3.3008,3.3001,3.2995,3.3072,3.3072,3.3115,3.3116,3.3116]}]]